Time,TemperatureF,DewpointF,PressureIn,WindDirection,WindDirectionDegrees,WindSpeedMPH,WindSpeedGustMPH,Humidity,HourlyPrecipIn,Conditions,Clouds,dailyrainin,SoftwareType,DateUTC
2013-08-13 00:01:00,82.8,73.6,30.02,ESE,113,1.1,2.2,74,0.00,,,0.00,WUHU216HW,2013-08-13 04:01:00,
2013-08-13 00:02:00,82.8,73.6,30.02,ESE,113,1.8,2.2,74,0.00,,,0.00,WUHU216HW,2013-08-13 04:02:00,
2013-08-13 00:03:00,82.6,73.4,30.02,East,90,1.1,2.2,74,0.00,,,0.00,WUHU216HW,2013-08-13 04:03:00,
2013-08-13 00:09:00,82.6,73.4,30.02,ENE,68,1.6,1.8,74,0.00,,,0.00,WUHU216HW,2013-08-13 04:09:00,
2013-08-13 00:14:00,82.4,73.7,30.02,East,90,1.1,1.8,75,0.00,,,0.00,WUHU216HW,2013-08-13 04:14:00,
2013-08-13 00:19:00,82.4,73.7,30.02,ENE,68,0.0,1.8,75,0.00,,,0.00,WUHU216HW,2013-08-13 04:19:00,
2013-08-13 00:24:00,82.3,73.5,30.02,North,0,1.1,1.1,75,0.00,,,0.00,WUHU216HW,2013-08-13 04:24:00,
2013-08-13 00:29:00,82.1,73.4,30.02,ESE,113,0.7,2.0,75,0.00,,,0.00,WUHU216HW,2013-08-13 04:29:00,
2013-08-13 00:34:00,82.1,73.8,30.02,NE,45,0.4,2.0,76,0.00,,,0.00,WUHU216HW,2013-08-13 04:34:00,
2013-08-13 00:39:00,81.9,73.6,30.02,NE,45,0.4,1.3,76,0.00,,,0.00,WUHU216HW,2013-08-13 04:39:00,
2013-08-13 00:44:00,81.7,73.5,30.02,East,90,0.2,1.1,76,0.00,,,0.00,WUHU216HW,2013-08-13 04:44:00,
2013-08-13 00:49:00,81.9,73.6,30.02,NE,45,0.2,1.1,76,0.00,,,0.00,WUHU216HW,2013-08-13 04:49:00,
2013-08-13 00:54:00,81.9,73.6,30.02,East,90,0.0,1.1,76,0.00,,,0.00,WUHU216HW,2013-08-13 04:54:00,
2013-08-13 01:00:00,81.9,73.6,30.02,ENE,68,0.0,1.1,76,0.00,,,0.00,WUHU216HW,2013-08-13 05:00:00,
2013-08-13 01:05:00,81.9,73.6,30.02,NE,45,1.3,1.3,76,0.00,,,0.00,WUHU216HW,2013-08-13 05:05:00,
2013-08-13 01:10:00,81.7,73.8,30.02,NNE,23,0.7,1.3,77,0.00,,,0.00,WUHU216HW,2013-08-13 05:10:00,
2013-08-13 01:15:00,81.5,72.8,30.02,East,90,0.4,1.1,75,0.00,,,0.00,WUHU216HW,2013-08-13 05:15:00,
2013-08-13 01:20:00,81.5,73.3,30.02,NNE,23,0.4,1.1,76,0.00,,,0.00,WUHU216HW,2013-08-13 05:20:00,
2013-08-13 01:25:00,81.5,73.3,30.02,NNE,23,0.2,1.1,76,0.00,,,0.00,WUHU216HW,2013-08-13 05:25:00,
2013-08-13 01:30:00,81.5,73.3,30.02,ESE,113,0.9,0.9,76,0.00,,,0.00,WUHU216HW,2013-08-13 05:30:00,
2013-08-13 01:35:00,81.5,73.3,30.02,ESE,113,0.4,2.0,76,0.00,,,0.00,WUHU216HW,2013-08-13 05:35:00,
2013-08-13 01:40:00,81.5,73.3,30.02,ESE,113,0.0,2.0,76,0.00,,,0.00,WUHU216HW,2013-08-13 05:40:00,
2013-08-13 01:46:00,81.5,73.3,30.02,ENE,68,0.0,0.4,76,0.00,,,0.00,WUHU216HW,2013-08-13 05:46:00,
2013-08-13 01:51:00,81.4,73.5,30.02,East,90,0.9,0.9,77,0.00,,,0.00,WUHU216HW,2013-08-13 05:51:00,
2013-08-13 01:56:00,81.5,73.7,30.02,East,90,0.2,1.3,77,0.00,,,0.00,WUHU216HW,2013-08-13 05:56:00,
2013-08-13 02:01:00,81.4,73.5,30.02,East,90,0.4,1.3,77,0.00,,,0.00,WUHU216HW,2013-08-13 06:01:00,
2013-08-13 02:06:00,81.4,73.5,30.01,ENE,68,0.4,0.4,77,0.00,,,0.00,WUHU216HW,2013-08-13 06:06:00,
2013-08-13 02:11:00,81.4,73.5,30.01,NE,45,0.4,0.4,77,0.00,,,0.00,WUHU216HW,2013-08-13 06:11:00,
2013-08-13 02:16:00,81.2,73.7,30.01,North,0,1.1,1.1,78,0.00,,,0.00,WUHU216HW,2013-08-13 06:16:00,
2013-08-13 02:22:00,81.0,73.5,30.02,NNE,23,0.4,1.6,78,0.00,,,0.00,WUHU216HW,2013-08-13 06:22:00,
2013-08-13 02:27:00,81.0,73.5,30.01,ENE,68,0.2,1.6,78,0.00,,,0.00,WUHU216HW,2013-08-13 06:27:00,
2013-08-13 02:32:00,81.0,73.5,30.01,NNE,23,1.1,2.2,78,0.00,,,0.00,WUHU216HW,2013-08-13 06:32:00,
2013-08-13 02:37:00,80.8,73.4,30.01,North,0,0.0,2.2,78,0.00,,,0.00,WUHU216HW,2013-08-13 06:37:00,
2013-08-13 02:42:00,81.0,73.5,30.01,NNE,23,0.2,1.3,78,0.00,,,0.00,WUHU216HW,2013-08-13 06:42:00,
2013-08-13 02:47:00,81.0,73.5,30.01,NNE,23,0.4,1.1,78,0.00,,,0.00,WUHU216HW,2013-08-13 06:47:00,
2013-08-13 02:52:00,81.0,73.5,30.00,NE,45,0.0,1.1,78,0.00,,,0.00,WUHU216HW,2013-08-13 06:52:00,
2013-08-13 02:57:00,81.0,73.5,30.01,NE,45,0.0,1.1,78,0.00,,,0.00,WUHU216HW,2013-08-13 06:57:00,
2013-08-13 03:02:00,81.0,73.5,30.00,NE,45,0.4,0.4,78,0.00,,,0.00,WUHU216HW,2013-08-13 07:02:00,
2013-08-13 03:07:00,81.0,73.5,30.00,ESE,113,0.0,1.1,78,0.00,,,0.00,WUHU216HW,2013-08-13 07:07:00,
2013-08-13 03:13:00,81.0,73.5,30.00,ESE,113,0.4,1.1,78,0.00,,,0.00,WUHU216HW,2013-08-13 07:13:00,
2013-08-13 03:18:00,80.8,73.4,30.00,ESE,113,0.0,0.4,78,0.00,,,0.00,WUHU216HW,2013-08-13 07:18:00,
2013-08-13 03:23:00,80.8,73.4,30.00,ESE,113,0.4,0.4,78,0.00,,,0.00,WUHU216HW,2013-08-13 07:23:00,
2013-08-13 03:28:00,80.8,73.4,30.00,ESE,113,0.0,0.4,78,0.00,,,0.00,WUHU216HW,2013-08-13 07:28:00,
2013-08-13 03:33:00,80.6,73.2,30.00,ESE,113,0.0,0.4,78,0.00,,,0.00,WUHU216HW,2013-08-13 07:33:00,
2013-08-13 03:38:00,80.6,73.2,30.00,ESE,113,0.0,0.4,78,0.00,,,0.00,WUHU216HW,2013-08-13 07:38:00,
2013-08-13 03:43:00,80.6,73.6,29.99,ESE,113,0.7,0.7,79,0.00,,,0.00,WUHU216HW,2013-08-13 07:43:00,
2013-08-13 03:48:00,80.5,73.5,29.99,ESE,113,0.0,0.7,79,0.00,,,0.00,WUHU216HW,2013-08-13 07:48:00,
2013-08-13 03:53:00,80.5,73.5,29.99,ESE,113,0.0,0.4,79,0.00,,,0.00,WUHU216HW,2013-08-13 07:53:00,
2013-08-13 03:58:00,80.3,73.3,29.99,ESE,113,0.0,0.0,79,0.00,,,0.00,WUHU216HW,2013-08-13 07:58:00,
2013-08-13 04:03:00,80.3,73.3,29.99,ESE,113,0.2,0.2,79,0.00,,,0.00,WUHU216HW,2013-08-13 08:03:00,
2013-08-13 04:09:00,80.1,73.1,29.99,ESE,113,0.0,0.4,79,0.00,,,0.00,WUHU216HW,2013-08-13 08:09:00,
2013-08-13 04:14:00,80.1,73.4,29.99,ESE,113,0.0,0.4,80,0.00,,,0.00,WUHU216HW,2013-08-13 08:14:00,
2013-08-13 04:19:00,80.1,73.4,29.99,ESE,113,0.0,0.0,80,0.00,,,0.00,WUHU216HW,2013-08-13 08:19:00,
2013-08-13 04:24:00,79.9,73.3,29.99,ESE,113,0.4,0.4,80,0.00,,,0.00,WUHU216HW,2013-08-13 08:24:00,
2013-08-13 04:29:00,79.9,73.3,29.99,ESE,113,0.9,2.5,80,0.00,,,0.00,WUHU216HW,2013-08-13 08:29:00,
2013-08-13 04:34:00,79.9,73.3,29.99,ESE,113,0.7,2.5,80,0.00,,,0.00,WUHU216HW,2013-08-13 08:34:00,
2013-08-13 04:39:00,79.9,73.3,29.99,ESE,113,0.4,1.1,80,0.00,,,0.00,WUHU216HW,2013-08-13 08:39:00,
2013-08-13 04:44:00,79.7,73.1,29.99,ESE,113,0.0,0.9,80,0.00,,,0.00,WUHU216HW,2013-08-13 08:44:00,
2013-08-13 04:49:00,79.7,73.1,29.99,ESE,113,0.0,0.9,80,0.00,,,0.00,WUHU216HW,2013-08-13 08:49:00,
2013-08-13 04:54:00,79.7,73.1,29.99,ESE,113,0.2,0.9,80,0.00,,,0.00,WUHU216HW,2013-08-13 08:54:00,
2013-08-13 04:59:00,79.7,73.1,29.99,East,90,0.0,0.9,80,0.00,,,0.00,WUHU216HW,2013-08-13 08:59:00,
2013-08-13 05:05:00,79.7,73.1,29.99,East,90,0.2,0.7,80,0.00,,,0.00,WUHU216HW,2013-08-13 09:05:00,
2013-08-13 05:10:00,79.7,73.5,29.99,East,90,0.0,0.2,81,0.00,,,0.00,WUHU216HW,2013-08-13 09:10:00,
2013-08-13 05:15:00,79.7,73.5,29.99,East,90,0.7,0.7,81,0.00,,,0.00,WUHU216HW,2013-08-13 09:15:00,
2013-08-13 05:20:00,79.7,73.5,29.99,ESE,113,0.2,0.7,81,0.00,,,0.00,WUHU216HW,2013-08-13 09:20:00,
2013-08-13 05:25:00,79.6,73.3,29.99,ESE,113,0.0,0.4,81,0.00,,,0.00,WUHU216HW,2013-08-13 09:25:00,
2013-08-13 05:30:00,79.6,73.3,29.99,East,90,0.0,1.1,81,0.00,,,0.00,WUHU216HW,2013-08-13 09:30:00,
2013-08-13 05:35:00,79.6,73.3,29.99,East,90,0.4,1.1,81,0.00,,,0.00,WUHU216HW,2013-08-13 09:35:00,
2013-08-13 05:40:00,79.6,73.3,29.99,East,90,0.4,1.1,81,0.00,,,0.00,WUHU216HW,2013-08-13 09:40:00,
2013-08-13 05:45:00,79.6,73.3,29.99,ESE,113,0.4,1.1,81,0.00,,,0.00,WUHU216HW,2013-08-13 09:45:00,
2013-08-13 05:50:00,79.6,73.3,29.99,ESE,113,0.2,0.7,81,0.00,,,0.00,WUHU216HW,2013-08-13 09:50:00,
2013-08-13 05:56:00,79.4,73.1,29.99,ESE,113,0.0,0.9,81,0.00,,,0.00,WUHU216HW,2013-08-13 09:56:00,
2013-08-13 06:01:00,79.4,73.1,29.99,ESE,113,0.4,0.9,81,0.00,,,0.00,WUHU216HW,2013-08-13 10:01:00,
2013-08-13 06:06:00,79.4,73.1,29.99,ESE,113,0.0,0.9,81,0.00,,,0.00,WUHU216HW,2013-08-13 10:06:00,
2013-08-13 06:11:00,79.4,73.1,29.99,ESE,113,0.7,0.9,81,0.00,,,0.00,WUHU216HW,2013-08-13 10:11:00,
2013-08-13 06:16:00,79.2,72.9,29.99,ESE,113,0.0,0.9,81,0.00,,,0.00,WUHU216HW,2013-08-13 10:16:00,
2013-08-13 06:21:00,79.2,72.9,29.99,ESE,113,1.1,1.6,81,0.00,,,0.00,WUHU216HW,2013-08-13 10:21:00,
2013-08-13 06:26:00,79.2,72.9,29.99,ESE,113,0.7,1.8,81,0.00,,,0.00,WUHU216HW,2013-08-13 10:26:00,
2013-08-13 06:31:00,79.2,72.9,29.99,ESE,113,0.4,1.8,81,0.00,,,0.00,WUHU216HW,2013-08-13 10:31:00,
2013-08-13 06:36:00,79.2,72.9,29.99,ESE,113,0.7,1.1,81,0.00,,,0.00,WUHU216HW,2013-08-13 10:36:00,
2013-08-13 06:41:00,79.2,72.9,29.99,ENE,68,0.0,1.3,81,0.00,,,0.00,WUHU216HW,2013-08-13 10:41:00,
2013-08-13 06:46:00,79.2,72.9,29.99,ESE,113,1.1,1.3,81,0.00,,,0.00,WUHU216HW,2013-08-13 10:46:00,
2013-08-13 06:51:00,79.2,72.9,29.99,ESE,113,0.4,1.3,81,0.00,,,0.00,WUHU216HW,2013-08-13 10:51:00,
2013-08-13 06:56:00,79.2,72.9,29.99,ESE,113,0.4,1.3,81,0.00,,,0.00,WUHU216HW,2013-08-13 10:56:00,
2013-08-13 07:01:00,79.2,72.9,30.00,ESE,113,0.0,1.1,81,0.00,,,0.00,WUHU216HW,2013-08-13 11:01:00,
2013-08-13 07:06:00,79.2,72.9,30.00,ESE,113,0.4,0.9,81,0.00,,,0.00,WUHU216HW,2013-08-13 11:06:00,
2013-08-13 07:11:00,79.2,72.9,30.00,ENE,68,0.0,0.9,81,0.00,,,0.00,WUHU216HW,2013-08-13 11:11:00,
2013-08-13 07:16:00,79.2,72.9,30.00,ENE,68,0.0,0.4,81,0.00,,,0.00,WUHU216HW,2013-08-13 11:16:00,
2013-08-13 07:21:00,79.2,72.9,30.00,ENE,68,0.4,0.4,81,0.00,,,0.00,WUHU216HW,2013-08-13 11:21:00,
2013-08-13 07:26:00,79.2,72.9,30.01,East,90,0.0,1.6,81,0.00,,,0.00,WUHU216HW,2013-08-13 11:26:00,
2013-08-13 07:32:00,79.2,72.9,30.01,ESE,113,0.2,1.6,81,0.00,,,0.00,WUHU216HW,2013-08-13 11:32:00,
2013-08-13 07:37:00,79.2,72.9,30.01,ESE,113,1.1,1.6,81,0.00,,,0.00,WUHU216HW,2013-08-13 11:37:00,
2013-08-13 07:42:00,79.2,72.9,30.00,ESE,113,2.2,2.2,81,0.00,,,0.00,WUHU216HW,2013-08-13 11:42:00,
2013-08-13 07:47:00,79.2,72.9,30.01,ESE,113,1.1,2.2,81,0.00,,,0.00,WUHU216HW,2013-08-13 11:47:00,
2013-08-13 07:52:00,79.4,73.1,30.01,ENE,68,1.1,2.0,81,0.00,,,0.00,WUHU216HW,2013-08-13 11:52:00,
2013-08-13 07:57:00,79.6,73.3,30.01,ESE,113,0.0,1.6,81,0.00,,,0.00,WUHU216HW,2013-08-13 11:57:00,
2013-08-13 08:02:00,79.6,73.3,30.00,ENE,68,0.9,1.6,81,0.00,,,0.00,WUHU216HW,2013-08-13 12:02:00,
2013-08-13 08:07:00,79.6,73.3,30.00,East,90,0.2,1.6,81,0.00,,,0.00,WUHU216HW,2013-08-13 12:07:00,
2013-08-13 08:12:00,79.6,73.3,30.00,ESE,113,0.4,2.2,81,0.00,,,0.00,WUHU216HW,2013-08-13 12:12:00,
2013-08-13 08:17:00,79.6,73.3,30.00,ESE,113,1.1,2.2,81,0.00,,,0.00,WUHU216HW,2013-08-13 12:17:00,
2013-08-13 08:22:00,79.6,73.3,30.00,ESE,113,1.1,2.2,81,0.00,,,0.00,WUHU216HW,2013-08-13 12:22:00,
2013-08-13 08:27:00,79.7,73.5,30.00,ESE,113,0.2,1.6,81,0.00,,,0.00,WUHU216HW,2013-08-13 12:27:00,
2013-08-13 08:32:00,79.9,73.6,30.00,East,90,0.2,2.0,81,0.00,,,0.00,WUHU216HW,2013-08-13 12:32:00,
2013-08-13 08:38:00,80.1,73.4,30.00,East,90,2.0,2.0,80,0.00,,,0.00,WUHU216HW,2013-08-13 12:38:00,
2013-08-13 08:43:00,80.3,73.6,30.01,SE,135,1.6,2.5,80,0.00,,,0.00,WUHU216HW,2013-08-13 12:43:00,
2013-08-13 08:48:00,80.3,73.6,30.00,SE,135,2.0,2.7,80,0.00,,,0.00,WUHU216HW,2013-08-13 12:48:00,
2013-08-13 08:53:00,80.6,74.0,30.00,ESE,113,2.5,3.1,80,0.00,,,0.00,WUHU216HW,2013-08-13 12:53:00,
2013-08-13 08:58:00,81.0,74.3,30.00,ESE,113,3.6,3.6,80,0.00,,,0.00,WUHU216HW,2013-08-13 12:58:00,
2013-08-13 09:03:00,81.4,75.1,30.00,ESE,113,1.6,3.6,81,0.00,,,0.00,WUHU216HW,2013-08-13 13:03:00,
2013-08-13 09:08:00,81.4,74.7,30.00,ESE,113,4.0,4.0,80,0.00,,,0.00,WUHU216HW,2013-08-13 13:08:00,
2013-08-13 09:13:00,81.7,75.4,29.99,ESE,113,2.5,4.0,81,0.00,,,0.00,WUHU216HW,2013-08-13 13:13:00,
2013-08-13 09:18:00,82.1,75.8,29.99,SSE,158,1.6,4.7,81,0.00,,,0.00,WUHU216HW,2013-08-13 13:18:00,
2013-08-13 09:23:00,82.4,75.8,29.99,SE,135,3.1,4.7,80,0.00,,,0.00,WUHU216HW,2013-08-13 13:23:00,
2013-08-13 09:28:00,82.8,75.7,30.00,ESE,113,4.3,4.7,79,0.00,,,0.00,WUHU216HW,2013-08-13 13:28:00,
2013-08-13 09:33:00,83.2,76.1,30.00,SE,135,4.0,4.3,79,0.00,,,0.00,WUHU216HW,2013-08-13 13:33:00,
2013-08-13 09:39:00,83.7,76.5,30.00,ESE,113,3.4,4.0,79,0.00,,,0.00,WUHU216HW,2013-08-13 13:39:00,
2013-08-13 09:44:00,84.1,76.4,30.00,SSE,158,1.1,3.4,78,0.00,,,0.00,WUHU216HW,2013-08-13 13:44:00,
2013-08-13 09:49:00,84.6,76.6,30.00,SSE,158,1.1,4.5,77,0.00,,,0.00,WUHU216HW,2013-08-13 13:49:00,
2013-08-13 09:54:00,85.0,76.5,30.00,SSE,158,3.8,4.5,76,0.00,,,0.00,WUHU216HW,2013-08-13 13:54:00,
2013-08-13 09:59:00,85.5,77.0,30.00,ESE,113,4.0,4.0,76,0.00,,,0.00,WUHU216HW,2013-08-13 13:59:00,
2013-08-13 10:04:00,85.7,76.9,30.00,ESE,113,4.9,4.9,75,0.00,,,0.00,WUHU216HW,2013-08-13 14:04:00,
2013-08-13 10:09:00,86.2,77.0,30.00,ESE,113,2.0,4.9,74,0.00,,,0.00,WUHU216HW,2013-08-13 14:09:00,
2013-08-13 10:15:00,86.6,77.3,30.00,ESE,113,0.4,2.2,74,0.00,,,0.00,WUHU216HW,2013-08-13 14:15:00,
2013-08-13 10:20:00,86.9,77.3,30.00,ESE,113,3.4,3.4,73,0.00,,,0.00,WUHU216HW,2013-08-13 14:20:00,
2013-08-13 10:25:00,87.1,77.1,30.00,SE,135,1.3,6.0,72,0.00,,,0.00,WUHU216HW,2013-08-13 14:25:00,
2013-08-13 10:30:00,87.5,77.0,30.00,SE,135,2.5,6.0,71,0.00,,,0.00,WUHU216HW,2013-08-13 14:30:00,
2013-08-13 10:35:00,87.7,77.1,30.00,SE,135,1.8,4.5,71,0.00,,,0.00,WUHU216HW,2013-08-13 14:35:00,
2013-08-13 10:40:00,87.8,75.5,30.00,ESE,113,3.6,3.6,67,0.00,,,0.00,WUHU216HW,2013-08-13 14:40:00,
2013-08-13 10:45:00,88.2,76.8,30.00,SE,135,5.6,5.6,69,0.00,,,0.00,WUHU216HW,2013-08-13 14:45:00,
2013-08-13 10:50:00,88.7,77.3,30.00,SSW,203,0.9,5.6,69,0.00,,,0.00,WUHU216HW,2013-08-13 14:50:00,
2013-08-13 10:55:00,89.1,77.7,30.00,SE,135,1.8,3.8,69,0.00,,,0.00,WUHU216HW,2013-08-13 14:55:00,
2013-08-13 11:00:00,89.3,77.9,30.00,ESE,113,1.6,3.8,69,0.00,,,0.00,WUHU216HW,2013-08-13 15:00:00,
2013-08-13 11:05:00,89.6,77.8,30.01,SSE,158,1.8,3.8,68,0.00,,,0.00,WUHU216HW,2013-08-13 15:05:00,
2013-08-13 11:11:00,90.0,77.6,30.01,SE,135,3.1,5.4,67,0.00,,,0.00,WUHU216HW,2013-08-13 15:11:00,
2013-08-13 11:16:00,90.2,77.8,30.01,South,180,2.0,5.4,67,0.00,,,0.00,WUHU216HW,2013-08-13 15:16:00,
2013-08-13 11:21:00,90.4,78.0,30.01,East,90,4.9,4.9,67,0.00,,,0.00,WUHU216HW,2013-08-13 15:21:00,
2013-08-13 11:26:00,90.5,77.6,30.01,SE,135,3.4,4.9,66,0.00,,,0.00,WUHU216HW,2013-08-13 15:26:00,
2013-08-13 11:31:00,90.9,78.0,30.01,South,180,0.4,4.7,66,0.00,,,0.00,WUHU216HW,2013-08-13 15:31:00,
2013-08-13 11:36:00,91.4,77.9,30.01,SE,135,1.8,5.4,65,0.00,,,0.00,WUHU216HW,2013-08-13 15:36:00,
2013-08-13 11:41:00,91.6,78.1,30.01,ESE,113,3.1,5.4,65,0.00,,,0.00,WUHU216HW,2013-08-13 15:41:00,
2013-08-13 11:46:00,92.0,78.5,30.01,NE,45,2.7,3.8,65,0.00,,,0.00,WUHU216HW,2013-08-13 15:46:00,
2013-08-13 11:51:00,92.3,78.4,30.00,South,180,1.8,3.8,64,0.00,,,0.00,WUHU216HW,2013-08-13 15:51:00,
2013-08-13 11:56:00,92.7,77.3,30.00,SSE,158,1.8,2.7,61,0.00,,,0.00,WUHU216HW,2013-08-13 15:56:00,
2013-08-13 12:01:00,92.5,78.6,30.00,SE,135,1.8,3.8,64,0.00,,,0.00,WUHU216HW,2013-08-13 16:01:00,
2013-08-13 12:06:00,92.9,78.5,30.00,ESE,113,2.0,4.9,63,0.00,,,0.00,WUHU216HW,2013-08-13 16:06:00,
2013-08-13 12:12:00,93.4,79.5,30.00,SW,225,0.0,4.9,64,0.00,,,0.00,WUHU216HW,2013-08-13 16:12:00,
2013-08-13 12:17:00,93.6,78.7,29.99,ESE,113,0.9,2.5,62,0.00,,,0.00,WUHU216HW,2013-08-13 16:17:00,
2013-08-13 12:22:00,92.9,78.5,29.99,ESE,113,1.3,2.5,63,0.00,,,0.00,WUHU216HW,2013-08-13 16:22:00,
2013-08-13 12:27:00,92.5,78.6,29.99,SE,135,1.1,2.7,64,0.00,,,0.00,WUHU216HW,2013-08-13 16:27:00,
2013-08-13 12:32:00,92.0,78.0,29.99,NE,45,0.0,2.9,64,0.00,,,0.00,WUHU216HW,2013-08-13 16:32:00,
2013-08-13 12:37:00,91.6,76.2,29.99,ESE,113,4.7,4.7,61,0.00,,,0.00,WUHU216HW,2013-08-13 16:37:00,
2013-08-13 12:42:00,92.2,77.2,29.99,ESE,113,0.4,4.7,62,0.00,,,0.00,WUHU216HW,2013-08-13 16:42:00,
2013-08-13 12:47:00,92.2,77.8,29.99,SE,135,0.0,2.2,63,0.00,,,0.00,WUHU216HW,2013-08-13 16:47:00,
2013-08-13 12:52:00,91.8,77.4,29.99,SSE,158,0.0,2.2,63,0.00,,,0.00,WUHU216HW,2013-08-13 16:52:00,
2013-08-13 12:57:00,91.6,75.8,29.99,ESE,113,4.3,5.4,60,0.00,,,0.00,WUHU216HW,2013-08-13 16:57:00,
2013-08-13 13:02:00,91.8,75.4,29.99,SSW,203,2.5,5.4,59,0.00,,,0.00,WUHU216HW,2013-08-13 17:02:00,
2013-08-13 13:07:00,92.5,77.1,29.98,SSW,203,2.5,3.8,61,0.00,,,0.00,WUHU216HW,2013-08-13 17:07:00,
2013-08-13 13:13:00,93.4,78.0,29.98,SE,135,1.1,3.8,61,0.00,,,0.00,WUHU216HW,2013-08-13 17:13:00,
2013-08-13 13:18:00,93.8,77.9,29.98,ESE,113,3.4,3.4,60,0.00,,,0.00,WUHU216HW,2013-08-13 17:18:00,
2013-08-13 13:23:00,94.0,77.5,29.98,SSE,158,0.4,3.4,59,0.00,,,0.00,WUHU216HW,2013-08-13 17:23:00,
2013-08-13 13:28:00,94.1,77.7,29.98,WSW,248,1.1,1.6,59,0.00,,,0.00,WUHU216HW,2013-08-13 17:28:00,
2013-08-13 13:33:00,94.7,78.7,29.98,South,180,4.0,4.0,60,0.00,,,0.00,WUHU216HW,2013-08-13 17:33:00,
2013-08-13 13:38:00,95.0,79.0,29.98,SSW,203,0.9,4.0,60,0.00,,,0.00,WUHU216HW,2013-08-13 17:38:00,
2013-08-13 13:43:00,95.2,79.2,29.98,SSW,203,1.6,2.9,60,0.00,,,0.00,WUHU216HW,2013-08-13 17:43:00,
2013-08-13 13:48:00,95.0,78.5,29.98,SSE,158,0.4,2.9,59,0.00,,,0.00,WUHU216HW,2013-08-13 17:48:00,
2013-08-13 13:53:00,94.9,78.8,29.98,SSW,203,2.7,2.7,60,0.00,,,0.00,WUHU216HW,2013-08-13 17:53:00,
2013-08-13 13:58:00,94.5,78.6,29.98,SW,225,1.3,2.7,60,0.00,,,0.00,WUHU216HW,2013-08-13 17:58:00,
2013-08-13 14:03:00,94.0,78.5,29.98,WSW,248,4.9,4.9,61,0.00,,,0.00,WUHU216HW,2013-08-13 18:03:00,
2013-08-13 14:08:00,93.6,78.7,29.98,SSW,203,0.2,4.9,62,0.00,,,0.00,WUHU216HW,2013-08-13 18:08:00,
2013-08-13 14:13:00,93.6,78.7,29.97,South,180,2.5,3.8,62,0.00,,,0.00,WUHU216HW,2013-08-13 18:13:00,
2013-08-13 14:18:00,93.6,79.1,29.97,SSE,158,1.8,3.8,63,0.00,,,0.00,WUHU216HW,2013-08-13 18:18:00,
2013-08-13 14:23:00,94.0,79.5,29.97,South,180,1.8,2.0,63,0.00,,,0.00,WUHU216HW,2013-08-13 18:23:00,
2013-08-13 14:28:00,94.5,79.9,29.96,SW,225,1.1,2.0,63,0.00,,,0.00,WUHU216HW,2013-08-13 18:28:00,
2013-08-13 14:33:00,94.7,80.1,29.96,SSW,203,0.4,2.5,63,0.00,,,0.00,WUHU216HW,2013-08-13 18:33:00,
2013-08-13 14:38:00,94.7,80.1,29.96,SSW,203,0.7,2.5,63,0.00,,,0.00,WUHU216HW,2013-08-13 18:38:00,
2013-08-13 14:43:00,94.1,79.1,29.96,WSW,248,0.4,2.5,62,0.00,,,0.00,WUHU216HW,2013-08-13 18:43:00,
2013-08-13 14:48:00,93.6,79.1,29.96,West,270,1.3,2.5,63,0.00,,,0.00,WUHU216HW,2013-08-13 18:48:00,
2013-08-13 14:53:00,93.4,78.9,29.96,NE,45,1.1,2.5,63,0.00,,,0.00,WUHU216HW,2013-08-13 18:53:00,
2013-08-13 14:58:00,92.9,78.5,29.95,SW,225,3.1,3.1,63,0.00,,,0.00,WUHU216HW,2013-08-13 18:58:00,
2013-08-13 15:03:00,92.5,78.1,29.95,SSE,158,0.4,3.1,63,0.00,,,0.00,WUHU216HW,2013-08-13 19:03:00,
2013-08-13 15:08:00,91.8,77.9,29.96,WNW,293,0.9,2.5,64,0.00,,,0.00,WUHU216HW,2013-08-13 19:08:00,
2013-08-13 15:13:00,91.4,77.5,29.96,WSW,248,3.6,3.6,64,0.00,,,0.00,WUHU216HW,2013-08-13 19:13:00,
2013-08-13 15:18:00,90.9,78.0,29.96,NNW,338,4.0,4.0,66,0.00,,,0.00,WUHU216HW,2013-08-13 19:18:00,
2013-08-13 15:23:00,90.2,77.8,29.96,NW,315,6.9,6.9,67,0.00,,,0.00,WUHU216HW,2013-08-13 19:23:00,
2013-08-13 15:28:00,89.3,77.0,29.96,NNW,338,4.7,6.9,67,0.00,,,0.00,WUHU216HW,2013-08-13 19:28:00,
2013-08-13 15:33:00,88.9,77.1,29.95,WNW,293,4.5,6.3,68,0.00,,,0.00,WUHU216HW,2013-08-13 19:33:00,
2013-08-13 15:38:00,88.6,76.7,29.96,West,270,4.0,4.7,68,0.00,,,0.00,WUHU216HW,2013-08-13 19:38:00,
2013-08-13 15:43:00,88.2,77.2,29.96,North,0,1.1,4.9,70,0.00,,,0.00,WUHU216HW,2013-08-13 19:43:00,
2013-08-13 15:48:00,87.8,76.9,29.96,NW,315,2.9,4.9,70,0.00,,,0.00,WUHU216HW,2013-08-13 19:48:00,
2013-08-13 15:53:00,87.3,76.8,29.95,NW,315,2.0,4.7,71,0.00,,,0.00,WUHU216HW,2013-08-13 19:53:00,
2013-08-13 15:58:00,86.9,76.9,29.95,NNW,338,2.5,3.4,72,0.00,,,0.00,WUHU216HW,2013-08-13 19:58:00,
2013-08-13 16:03:00,86.8,77.1,29.95,NNE,23,1.8,3.4,73,0.01,,,0.01,WUHU216HW,2013-08-13 20:03:00,
2013-08-13 16:08:00,86.4,77.1,29.95,NW,315,2.7,2.7,74,0.01,,,0.01,WUHU216HW,2013-08-13 20:08:00,
2013-08-13 16:13:00,85.9,77.0,29.95,North,0,1.1,2.7,75,0.01,,,0.01,WUHU216HW,2013-08-13 20:13:00,
2013-08-13 16:19:00,85.9,77.0,29.94,SSW,203,0.0,1.8,75,0.01,,,0.01,WUHU216HW,2013-08-13 20:19:00,
2013-08-13 16:24:00,86.2,77.4,29.94,WSW,248,1.1,1.8,75,0.01,,,0.01,WUHU216HW,2013-08-13 20:24:00,
2013-08-13 16:29:00,86.6,77.8,29.94,WSW,248,1.8,3.1,75,0.01,,,0.01,WUHU216HW,2013-08-13 20:29:00,
2013-08-13 16:34:00,86.8,78.3,29.95,WNW,293,0.9,3.1,76,0.01,,,0.01,WUHU216HW,2013-08-13 20:34:00,
2013-08-13 16:39:00,86.4,77.9,29.94,WSW,248,0.9,2.2,76,0.01,,,0.01,WUHU216HW,2013-08-13 20:39:00,
2013-08-13 16:44:00,86.2,77.8,29.94,SW,225,0.9,1.8,76,0.01,,,0.01,WUHU216HW,2013-08-13 20:44:00,
2013-08-13 16:49:00,86.0,77.6,29.94,WSW,248,2.5,2.5,76,0.01,,,0.01,WUHU216HW,2013-08-13 20:49:00,
2013-08-13 16:54:00,85.9,77.4,29.94,SSW,203,1.1,2.5,76,0.01,,,0.01,WUHU216HW,2013-08-13 20:54:00,
2013-08-13 16:59:00,85.9,77.4,29.94,NW,315,1.3,2.5,76,0.00,,,0.01,WUHU216HW,2013-08-13 20:59:00,
2013-08-13 17:04:00,85.7,77.2,29.94,WSW,248,0.4,1.3,76,0.00,,,0.01,WUHU216HW,2013-08-13 21:04:00,
2013-08-13 17:09:00,85.9,77.4,29.94,SSW,203,0.0,0.9,76,0.00,,,0.01,WUHU216HW,2013-08-13 21:09:00,
2013-08-13 17:14:00,85.9,77.4,29.94,WSW,248,1.1,1.8,76,0.00,,,0.01,WUHU216HW,2013-08-13 21:14:00,
2013-08-13 17:19:00,85.9,77.4,29.94,SSE,158,0.4,1.8,76,0.00,,,0.01,WUHU216HW,2013-08-13 21:19:00,
2013-08-13 17:24:00,86.0,77.6,29.93,SSE,158,0.0,1.8,76,0.00,,,0.01,WUHU216HW,2013-08-13 21:24:00,
2013-08-13 17:29:00,86.0,77.2,29.93,SSW,203,0.0,1.8,75,0.00,,,0.01,WUHU216HW,2013-08-13 21:29:00,
2013-08-13 17:34:00,86.0,77.2,29.93,WSW,248,1.1,2.0,75,0.00,,,0.01,WUHU216HW,2013-08-13 21:34:00,
2013-08-13 17:40:00,86.2,77.0,29.94,WNW,293,0.9,2.0,74,0.00,,,0.01,WUHU216HW,2013-08-13 21:40:00,
2013-08-13 17:45:00,86.6,77.3,29.94,WSW,248,0.4,2.5,74,0.00,,,0.01,WUHU216HW,2013-08-13 21:45:00,
2013-08-13 17:50:00,86.8,76.7,29.95,WSW,248,0.9,2.5,72,0.00,,,0.01,WUHU216HW,2013-08-13 21:50:00,
2013-08-13 17:55:00,87.1,77.1,29.94,WSW,248,0.9,2.5,72,0.00,,,0.01,WUHU216HW,2013-08-13 21:55:00,
2013-08-13 18:00:00,87.3,77.2,29.94,West,270,0.9,1.6,72,0.00,,,0.01,WUHU216HW,2013-08-13 22:00:00,
2013-08-13 18:05:00,87.5,77.0,29.93,WSW,248,0.9,2.9,71,0.00,,,0.01,WUHU216HW,2013-08-13 22:05:00,
2013-08-13 18:10:00,87.7,77.1,29.93,SW,225,1.8,2.9,71,0.00,,,0.01,WUHU216HW,2013-08-13 22:10:00,
2013-08-13 18:15:00,88.0,77.5,29.94,NW,315,1.1,2.9,71,0.00,,,0.01,WUHU216HW,2013-08-13 22:15:00,
2013-08-13 18:20:00,88.2,77.2,29.94,SSW,203,0.2,2.9,70,0.00,,,0.01,WUHU216HW,2013-08-13 22:20:00,
2013-08-13 18:25:00,88.6,77.6,29.94,WSW,248,2.7,4.0,70,0.00,,,0.01,WUHU216HW,2013-08-13 22:25:00,
2013-08-13 18:30:00,88.6,77.6,29.92,SSE,158,1.1,4.0,70,0.00,,,0.01,WUHU216HW,2013-08-13 22:30:00,
2013-08-13 18:36:00,88.6,77.6,29.92,SW,225,0.7,3.8,70,0.00,,,0.01,WUHU216HW,2013-08-13 22:36:00,
2013-08-13 18:41:00,88.7,77.8,29.91,WSW,248,1.6,1.8,70,0.00,,,0.01,WUHU216HW,2013-08-13 22:41:00,
2013-08-13 18:46:00,88.7,77.8,29.93,SSW,203,0.4,1.8,70,0.00,,,0.01,WUHU216HW,2013-08-13 22:46:00,
2013-08-13 18:51:00,88.9,77.9,29.92,South,180,0.2,2.2,70,0.00,,,0.01,WUHU216HW,2013-08-13 22:51:00,
2013-08-13 18:56:00,88.9,77.5,29.92,SSW,203,1.3,2.2,69,0.00,,,0.01,WUHU216HW,2013-08-13 22:56:00,
2013-08-13 19:01:00,88.9,77.5,29.92,SSW,203,1.1,1.3,69,0.00,,,0.01,WUHU216HW,2013-08-13 23:01:00,
2013-08-13 19:07:00,88.7,77.3,29.92,SSW,203,0.2,1.6,69,0.00,,,0.01,WUHU216HW,2013-08-13 23:07:00,
2013-08-13 19:12:00,88.6,77.1,29.93,South,180,0.4,2.0,69,0.00,,,0.01,WUHU216HW,2013-08-13 23:12:00,
2013-08-13 19:17:00,88.7,77.3,29.93,SSW,203,0.4,2.0,69,0.00,,,0.01,WUHU216HW,2013-08-13 23:17:00,
2013-08-13 19:22:00,88.9,77.5,29.93,SW,225,0.4,1.3,69,0.00,,,0.01,WUHU216HW,2013-08-13 23:22:00,
2013-08-13 19:27:00,88.6,77.1,29.94,WSW,248,1.1,1.3,69,0.00,,,0.01,WUHU216HW,2013-08-13 23:27:00,
2013-08-13 19:32:00,88.6,77.1,29.94,SSW,203,0.9,1.1,69,0.00,,,0.01,WUHU216HW,2013-08-13 23:32:00,
2013-08-13 19:37:00,88.4,77.0,29.94,SW,225,1.1,1.3,69,0.00,,,0.01,WUHU216HW,2013-08-13 23:37:00,
2013-08-13 19:42:00,88.2,76.8,29.94,SSW,203,1.3,3.4,69,0.00,,,0.01,WUHU216HW,2013-08-13 23:42:00,
2013-08-13 19:47:00,88.2,77.2,29.94,SSE,158,0.4,3.4,70,0.00,,,0.01,WUHU216HW,2013-08-13 23:47:00,
2013-08-13 19:52:00,87.8,77.3,29.95,South,180,1.6,2.5,71,0.00,,,0.01,WUHU216HW,2013-08-13 23:52:00,
2013-08-13 19:57:00,87.5,77.4,29.95,SSE,158,0.7,2.5,72,0.00,,,0.01,WUHU216HW,2013-08-13 23:57:00,
2013-08-13 20:02:00,87.1,77.1,29.95,SE,135,2.0,2.5,72,0.00,,,0.01,WUHU216HW,2013-08-14 00:02:00,
2013-08-13 20:07:00,86.9,77.3,29.96,SSE,158,0.0,2.5,73,0.00,,,0.01,WUHU216HW,2013-08-14 00:07:00,
2013-08-13 20:12:00,86.6,77.0,29.96,SSE,158,1.1,1.6,73,0.00,,,0.01,WUHU216HW,2013-08-14 00:12:00,
2013-08-13 20:17:00,86.2,76.6,29.95,SSE,158,1.8,2.0,73,0.00,,,0.01,WUHU216HW,2013-08-14 00:17:00,
2013-08-13 20:22:00,86.2,76.6,29.96,SSW,203,0.2,2.5,73,0.00,,,0.01,WUHU216HW,2013-08-14 00:22:00,
2013-08-13 20:27:00,86.2,76.6,29.96,South,180,0.2,2.5,73,0.00,,,0.01,WUHU216HW,2013-08-14 00:27:00,
2013-08-13 20:32:00,86.0,76.4,29.96,SSW,203,0.0,1.1,73,0.00,,,0.01,WUHU216HW,2013-08-14 00:32:00,
2013-08-13 20:37:00,86.0,76.4,29.96,South,180,0.4,0.4,73,0.00,,,0.01,WUHU216HW,2013-08-14 00:37:00,
2013-08-13 20:42:00,86.0,76.4,29.97,South,180,0.0,0.4,73,0.00,,,0.01,WUHU216HW,2013-08-14 00:42:00,
2013-08-13 20:47:00,85.9,76.2,29.97,SSE,158,0.0,0.4,73,0.00,,,0.01,WUHU216HW,2013-08-14 00:47:00,
2013-08-13 20:52:00,85.9,76.2,29.97,SE,135,0.7,0.7,73,0.00,,,0.01,WUHU216HW,2013-08-14 00:52:00,
2013-08-13 20:59:00,85.7,76.5,29.97,SE,135,0.0,1.1,74,0.00,,,0.01,WUHU216HW,2013-08-14 00:59:00,
2013-08-13 21:04:00,85.5,76.3,29.98,East,90,0.7,1.1,74,0.01,,,0.02,WUHU216HW,2013-08-14 01:04:00,
2013-08-13 21:09:00,85.3,76.5,29.98,East,90,0.4,1.1,75,0.01,,,0.02,WUHU216HW,2013-08-14 01:09:00,
2013-08-13 21:14:00,84.8,76.0,29.99,North,0,1.6,1.6,75,0.01,,,0.02,WUHU216HW,2013-08-14 01:14:00,
2013-08-13 21:19:00,84.2,75.8,29.99,NE,45,0.0,1.6,76,0.01,,,0.02,WUHU216HW,2013-08-14 01:19:00,
2013-08-13 21:24:00,84.1,75.7,29.98,ESE,113,0.0,0.9,76,0.02,,,0.03,WUHU216HW,2013-08-14 01:24:00,
2013-08-13 21:30:00,84.1,76.1,29.98,SE,135,0.0,0.4,77,0.06,,,0.06,WUHU216HW,2013-08-14 01:30:00,
2013-08-13 21:35:00,83.7,76.2,29.98,NW,315,0.2,1.1,78,0.10,,,0.11,WUHU216HW,2013-08-14 01:35:00,
2013-08-13 21:40:00,83.3,75.8,29.98,North,0,0.4,1.8,78,0.11,,,0.12,WUHU216HW,2013-08-14 01:40:00,
2013-08-13 21:45:00,83.2,76.1,29.98,North,0,0.0,1.8,79,0.11,,,0.12,WUHU216HW,2013-08-14 01:45:00,
2013-08-13 21:50:00,83.2,76.1,29.99,North,0,0.4,0.4,79,0.11,,,0.12,WUHU216HW,2013-08-14 01:50:00,
2013-08-13 21:55:00,83.2,76.1,29.99,NE,45,0.4,0.4,79,0.11,,,0.12,WUHU216HW,2013-08-14 01:55:00,
2013-08-13 22:00:00,83.2,76.1,29.99,ENE,68,0.0,0.4,79,0.11,,,0.12,WUHU216HW,2013-08-14 02:00:00,
2013-08-13 22:05:00,83.2,76.4,30.00,ENE,68,0.2,0.4,80,0.10,,,0.12,WUHU216HW,2013-08-14 02:05:00,
2013-08-13 22:11:00,83.0,76.2,30.00,ESE,113,0.0,0.7,80,0.10,,,0.12,WUHU216HW,2013-08-14 02:11:00,
2013-08-13 22:16:00,82.8,76.2,30.00,SE,135,0.7,0.7,80,0.10,,,0.12,WUHU216HW,2013-08-14 02:16:00,
2013-08-13 22:21:00,82.6,76.0,30.01,SSW,203,3.4,3.4,80,0.09,,,0.12,WUHU216HW,2013-08-14 02:21:00,
2013-08-13 22:26:00,82.1,75.0,30.01,SSE,158,1.8,5.4,79,0.08,,,0.12,WUHU216HW,2013-08-14 02:26:00,
2013-08-13 22:31:00,81.5,74.4,30.00,SSE,158,0.0,5.4,79,0.02,,,0.12,WUHU216HW,2013-08-14 02:31:00,
2013-08-13 22:36:00,81.5,74.4,30.00,SSE,158,0.2,2.0,79,0.00,,,0.12,WUHU216HW,2013-08-14 02:36:00,
2013-08-13 22:41:00,81.4,73.9,30.00,SSW,203,0.4,3.1,78,0.00,,,0.12,WUHU216HW,2013-08-14 02:41:00,
2013-08-13 22:46:00,81.4,73.9,30.01,SSW,203,0.2,3.1,78,0.00,,,0.12,WUHU216HW,2013-08-14 02:46:00,
2013-08-13 22:52:00,81.2,74.2,30.00,SSE,158,0.4,0.9,79,0.00,,,0.12,WUHU216HW,2013-08-14 02:52:00,
2013-08-13 22:57:00,81.4,74.4,30.00,SSE,158,0.0,0.9,79,0.00,,,0.12,WUHU216HW,2013-08-14 02:57:00,
2013-08-13 23:02:00,81.4,73.9,30.00,South,180,0.0,0.4,78,0.00,,,0.12,WUHU216HW,2013-08-14 03:02:00,
2013-08-13 23:07:00,81.4,73.9,30.00,NW,315,0.0,0.4,78,0.00,,,0.12,WUHU216HW,2013-08-14 03:07:00,
2013-08-13 23:12:00,81.2,73.7,30.00,NW,315,0.0,0.4,78,0.00,,,0.12,WUHU216HW,2013-08-14 03:12:00,
2013-08-13 23:17:00,81.0,74.0,30.01,NW,315,0.4,0.4,79,0.00,,,0.12,WUHU216HW,2013-08-14 03:17:00,
2013-08-13 23:22:00,80.8,73.8,30.01,NW,315,0.0,0.7,79,0.00,,,0.12,WUHU216HW,2013-08-14 03:22:00,
2013-08-13 23:27:00,80.8,73.8,30.01,WNW,293,0.0,0.7,79,0.00,,,0.12,WUHU216HW,2013-08-14 03:27:00,
2013-08-13 23:32:00,80.8,73.8,30.01,WNW,293,0.0,0.0,79,0.00,,,0.12,WUHU216HW,2013-08-14 03:32:00,
2013-08-13 23:38:00,80.8,73.8,30.01,WNW,293,0.0,0.0,79,0.00,,,0.12,WUHU216HW,2013-08-14 03:38:00,
2013-08-13 23:43:00,80.8,73.8,30.01,NW,315,0.7,0.9,79,0.00,,,0.12,WUHU216HW,2013-08-14 03:43:00,
2013-08-13 23:48:00,80.6,74.0,30.01,NW,315,0.0,0.9,80,0.00,,,0.12,WUHU216HW,2013-08-14 03:48:00,
2013-08-13 23:53:00,80.5,73.8,30.01,NW,315,0.0,0.0,80,0.00,,,0.12,WUHU216HW,2013-08-14 03:53:00,
2013-08-13 23:58:00,80.3,73.6,30.01,NW,315,0.0,0.0,80,0.00,,,0.12,WUHU216HW,2013-08-14 03:58:00,